Year,Month,Day,Hour,Minute,Value (Times are PST for temperature in C)
2005,09,26,00,00,10.20
2005,09,26,00,01,10.10
2005,09,26,00,02,10.10
2005,09,26,00,03,10.10
2005,09,26,00,04,10.10
2005,09,26,00,05,10.10
2005,09,26,00,06,10.10
2005,09,26,00,07,10.10
2005,09,26,00,08,10.10
2005,09,26,00,09,10.10
2005,09,26,00,10,10.10
2005,09,26,00,11,10.10
2005,09,26,00,12,10.10
2005,09,26,00,13,10.00
2005,09,26,00,14,9.90
2005,09,26,00,15,9.90
2005,09,26,00,16,9.90
2005,09,26,00,17,9.90
2005,09,26,00,18,9.90
2005,09,26,00,19,9.90
2005,09,26,00,20,9.90
2005,09,26,00,21,9.90
2005,09,26,00,22,9.90
2005,09,26,00,23,9.80
2005,09,26,00,24,9.80
2005,09,26,00,25,9.80
2005,09,26,00,26,9.80
2005,09,26,00,27,9.80
2005,09,26,00,28,9.80
2005,09,26,00,29,9.80
2005,09,26,00,30,9.70
2005,09,26,00,31,9.70
2005,09,26,00,32,9.70
2005,09,26,00,33,9.70
2005,09,26,00,34,9.70
2005,09,26,00,35,9.70
2005,09,26,00,36,9.70
2005,09,26,00,37,9.70
2005,09,26,00,38,9.80
2005,09,26,00,39,9.80
2005,09,26,00,40,9.80
2005,09,26,00,41,9.70
2005,09,26,00,42,9.70
2005,09,26,00,43,9.70
2005,09,26,00,44,9.70
2005,09,26,00,45,9.70
2005,09,26,00,46,9.70
2005,09,26,00,47,9.70
2005,09,26,00,48,9.70
2005,09,26,00,49,9.70
2005,09,26,00,50,9.70
2005,09,26,00,51,9.70
2005,09,26,00,52,9.70
2005,09,26,00,53,9.60
2005,09,26,00,54,9.60
2005,09,26,00,55,9.60
2005,09,26,00,56,9.60
2005,09,26,00,57,9.50
2005,09,26,00,58,9.50
2005,09,26,00,59,9.50
2005,09,26,01,00,9.50
2005,09,26,01,01,9.50
2005,09,26,01,02,9.50
2005,09,26,01,03,9.40
2005,09,26,01,04,9.40
2005,09,26,01,05,9.40
2005,09,26,01,06,9.40
2005,09,26,01,07,9.40
2005,09,26,01,08,9.40
2005,09,26,01,09,9.40
2005,09,26,01,10,9.30
2005,09,26,01,11,9.30
2005,09,26,01,12,9.30
2005,09,26,01,13,9.30
2005,09,26,01,14,9.30
2005,09,26,01,15,9.30
2005,09,26,01,16,9.30
2005,09,26,01,17,9.40
2005,09,26,01,18,9.40
2005,09,26,01,19,9.40
2005,09,26,01,20,9.40
2005,09,26,01,21,9.40
2005,09,26,01,22,9.40
2005,09,26,01,23,9.40
2005,09,26,01,24,9.40
2005,09,26,01,25,9.40
2005,09,26,01,26,9.40
2005,09,26,01,27,9.40
2005,09,26,01,28,9.30
2005,09,26,01,29,9.30
2005,09,26,01,30,9.30
2005,09,26,01,31,9.20
2005,09,26,01,32,9.20
2005,09,26,01,33,9.20
2005,09,26,01,34,9.20
2005,09,26,01,35,9.20
2005,09,26,01,36,9.20
2005,09,26,01,37,9.20
2005,09,26,01,38,9.20
2005,09,26,01,39,9.10
2005,09,26,01,40,9.10
2005,09,26,01,41,9.10
2005,09,26,01,42,9.10
2005,09,26,01,43,9.10
2005,09,26,01,44,9.10
2005,09,26,01,45,9.10
2005,09,26,01,46,9.00
2005,09,26,01,47,9.00
2005,09,26,01,48,9.00
2005,09,26,01,49,8.90
2005,09,26,01,50,8.90
2005,09,26,01,51,8.80
2005,09,26,01,52,8.80
2005,09,26,01,53,8.80
2005,09,26,01,54,8.70
2005,09,26,01,55,8.70
2005,09,26,01,56,8.70
2005,09,26,01,57,8.70
2005,09,26,01,58,8.70
2005,09,26,01,59,8.70
2005,09,26,02,00,8.70
2005,09,26,02,01,8.70
2005,09,26,02,02,8.70
2005,09,26,02,03,8.70
2005,09,26,02,04,8.60
2005,09,26,02,05,8.60
2005,09,26,02,06,8.60
2005,09,26,02,07,8.60
2005,09,26,02,08,8.60
2005,09,26,02,09,8.60
2005,09,26,02,10,8.60
2005,09,26,02,11,8.60
2005,09,26,02,12,8.60
2005,09,26,02,13,8.70
2005,09,26,02,14,8.70
2005,09,26,02,15,8.70
2005,09,26,02,16,8.70
2005,09,26,02,17,8.70
2005,09,26,02,18,8.70
2005,09,26,02,19,8.70
2005,09,26,02,20,8.70
2005,09,26,02,21,8.70
2005,09,26,02,22,8.70
2005,09,26,02,23,8.70
2005,09,26,02,24,8.70
2005,09,26,02,25,8.70
2005,09,26,02,26,8.70
2005,09,26,02,27,8.70
2005,09,26,02,28,8.80
2005,09,26,02,29,8.80
2005,09,26,02,30,8.80
2005,09,26,02,31,8.80
2005,09,26,02,32,8.80
2005,09,26,02,33,8.80
2005,09,26,02,34,8.90
2005,09,26,02,35,8.80
2005,09,26,02,36,8.80
2005,09,26,02,37,8.80
2005,09,26,02,38,8.70
2005,09,26,02,39,8.70
2005,09,26,02,40,8.70
2005,09,26,02,41,8.70
2005,09,26,02,42,8.60
2005,09,26,02,43,8.60
2005,09,26,02,44,8.50
2005,09,26,02,45,8.50
2005,09,26,02,46,8.50
2005,09,26,02,47,8.50
2005,09,26,02,48,8.50
2005,09,26,02,49,8.50
2005,09,26,02,50,8.50
2005,09,26,02,51,8.50
2005,09,26,02,52,8.50
2005,09,26,02,53,8.50
2005,09,26,02,54,8.50
2005,09,26,02,55,8.50
2005,09,26,02,56,8.60
2005,09,26,02,57,8.60
2005,09,26,02,58,8.60
2005,09,26,02,59,8.60
2005,09,26,03,00,8.60
2005,09,26,03,01,8.60
2005,09,26,03,02,8.50
2005,09,26,03,03,8.40
2005,09,26,03,04,8.30
2005,09,26,03,05,8.30
2005,09,26,03,06,8.30
2005,09,26,03,07,8.40
2005,09,26,03,08,8.50
2005,09,26,03,09,8.70
2005,09,26,03,10,8.70
2005,09,26,03,11,8.80
2005,09,26,03,12,8.80
2005,09,26,03,13,8.90
2005,09,26,03,14,8.90
2005,09,26,03,15,8.90
2005,09,26,03,16,8.90
2005,09,26,03,17,8.80
2005,09,26,03,18,8.80
2005,09,26,03,19,8.80
2005,09,26,03,20,8.80
2005,09,26,03,21,8.80
2005,09,26,03,22,8.70
2005,09,26,03,23,8.70
2005,09,26,03,24,8.70
2005,09,26,03,25,8.70
2005,09,26,03,26,8.70
2005,09,26,03,27,8.70
2005,09,26,03,28,8.60
2005,09,26,03,29,8.60
2005,09,26,03,30,8.50
2005,09,26,03,31,8.50
2005,09,26,03,32,8.50
2005,09,26,03,33,8.40
2005,09,26,03,34,8.40
2005,09,26,03,35,8.40
2005,09,26,03,36,8.30
2005,09,26,03,37,8.20
2005,09,26,03,38,8.20
2005,09,26,03,39,8.10
2005,09,26,03,40,8.10
2005,09,26,03,41,8.10
2005,09,26,03,42,8.00
2005,09,26,03,43,8.00
2005,09,26,03,44,8.20
2005,09,26,03,45,8.30
2005,09,26,03,46,8.40
2005,09,26,03,47,8.50
2005,09,26,03,48,8.60
2005,09,26,03,49,8.70
2005,09,26,03,50,8.80
2005,09,26,03,51,8.80
2005,09,26,03,52,8.90
2005,09,26,03,53,8.90
2005,09,26,03,54,8.90
2005,09,26,03,55,8.80
2005,09,26,03,56,8.80
2005,09,26,03,57,8.80
2005,09,26,03,58,8.80
2005,09,26,03,59,8.80
2005,09,26,04,00,8.80
2005,09,26,04,01,8.80
2005,09,26,04,02,8.80
2005,09,26,04,03,8.80
2005,09,26,04,04,8.80
2005,09,26,04,05,8.90
2005,09,26,04,06,8.90
2005,09,26,04,07,8.90
2005,09,26,04,08,8.90
2005,09,26,04,09,8.80
2005,09,26,04,10,8.80
2005,09,26,04,11,8.80
2005,09,26,04,12,8.80
2005,09,26,04,13,8.70
2005,09,26,04,14,8.70
2005,09,26,04,15,8.70
2005,09,26,04,16,8.70
2005,09,26,04,17,8.70
2005,09,26,04,18,8.70
2005,09,26,04,19,8.70
2005,09,26,04,20,8.70
2005,09,26,04,21,8.60
2005,09,26,04,22,8.60
2005,09,26,04,23,8.60
2005,09,26,04,24,8.50
2005,09,26,04,25,8.50
2005,09,26,04,26,8.40
2005,09,26,04,27,8.40
2005,09,26,04,28,8.30
2005,09,26,04,29,8.30
2005,09,26,04,30,8.30
2005,09,26,04,31,8.20
2005,09,26,04,32,8.20
2005,09,26,04,33,8.20
2005,09,26,04,34,8.20
2005,09,26,04,35,8.20
2005,09,26,04,36,8.20
2005,09,26,04,37,8.20
2005,09,26,04,38,8.10
2005,09,26,04,39,8.10
2005,09,26,04,40,8.10
2005,09,26,04,41,8.10
2005,09,26,04,42,8.20
2005,09,26,04,43,8.20
2005,09,26,04,44,8.20
2005,09,26,04,45,8.20
2005,09,26,04,46,8.20
2005,09,26,04,47,8.20
2005,09,26,04,48,8.20
2005,09,26,04,49,8.20
2005,09,26,04,50,8.20
2005,09,26,04,51,8.20
2005,09,26,04,52,8.20
2005,09,26,04,53,8.20
2005,09,26,04,54,8.20
2005,09,26,04,55,8.20
2005,09,26,04,56,8.20
2005,09,26,04,57,8.20
2005,09,26,04,58,8.20
2005,09,26,04,59,8.20
2005,09,26,05,00,8.20
2005,09,26,05,01,8.20
2005,09,26,05,02,8.20
2005,09,26,05,03,8.20
2005,09,26,05,04,8.10
2005,09,26,05,05,8.10
2005,09,26,05,06,8.10
2005,09,26,05,07,8.00
2005,09,26,05,08,8.00
2005,09,26,05,09,8.00
2005,09,26,05,10,7.90
2005,09,26,05,11,7.90
2005,09,26,05,12,7.90
2005,09,26,05,13,7.90
2005,09,26,05,14,7.80
2005,09,26,05,15,7.80
2005,09,26,05,16,7.80
2005,09,26,05,17,7.80
2005,09,26,05,18,7.80
2005,09,26,05,19,7.80
2005,09,26,05,20,7.80
2005,09,26,05,21,7.80
2005,09,26,05,22,7.80
2005,09,26,05,23,7.80
2005,09,26,05,24,7.80
2005,09,26,05,25,7.80
2005,09,26,05,26,7.80
2005,09,26,05,27,7.80
2005,09,26,05,28,7.80
2005,09,26,05,29,7.90
2005,09,26,05,30,8.00
2005,09,26,05,31,8.20
2005,09,26,05,32,8.20
2005,09,26,05,33,8.30
2005,09,26,05,34,8.30
2005,09,26,05,35,8.30
2005,09,26,05,36,8.40
2005,09,26,05,37,8.40
2005,09,26,05,38,8.50
2005,09,26,05,39,8.60
2005,09,26,05,40,8.60
2005,09,26,05,41,8.70
2005,09,26,05,42,8.70
2005,09,26,05,43,8.70
2005,09,26,05,44,8.70
2005,09,26,05,45,8.70
2005,09,26,05,46,8.70
2005,09,26,05,47,8.70
2005,09,26,05,48,8.70
2005,09,26,05,49,8.70
2005,09,26,05,50,8.70
2005,09,26,05,51,8.70
2005,09,26,05,52,8.70
2005,09,26,05,53,8.70
2005,09,26,05,54,8.70
2005,09,26,05,55,8.70
2005,09,26,05,56,8.70
2005,09,26,05,57,8.60
2005,09,26,05,58,8.60
2005,09,26,05,59,8.50
2005,09,26,06,00,8.50
2005,09,26,06,01,8.40
2005,09,26,06,02,8.40
2005,09,26,06,03,8.40
2005,09,26,06,04,8.30
2005,09,26,06,05,8.30
2005,09,26,06,06,8.30
2005,09,26,06,07,8.20
2005,09,26,06,08,8.20
2005,09,26,06,09,8.20
2005,09,26,06,10,8.20
2005,09,26,06,11,8.20
2005,09,26,06,12,8.20
2005,09,26,06,13,8.10
2005,09,26,06,14,8.10
2005,09,26,06,15,8.10
2005,09,26,06,16,8.00
2005,09,26,06,17,8.00
2005,09,26,06,18,7.90
2005,09,26,06,19,7.90
2005,09,26,06,20,7.90
2005,09,26,06,21,7.90
2005,09,26,06,22,7.80
2005,09,26,06,23,7.80
2005,09,26,06,24,7.80
2005,09,26,06,25,7.80
2005,09,26,06,26,7.80
2005,09,26,06,27,7.80
2005,09,26,06,28,7.90
2005,09,26,06,29,7.90
2005,09,26,06,30,7.90
2005,09,26,06,31,7.90
2005,09,26,06,32,7.90
2005,09,26,06,33,7.90
2005,09,26,06,34,7.90
2005,09,26,06,35,7.90
2005,09,26,06,36,7.90
2005,09,26,06,37,7.90
2005,09,26,06,38,7.90
2005,09,26,06,39,7.90
2005,09,26,06,40,7.90
2005,09,26,06,41,7.90
2005,09,26,06,42,7.90
2005,09,26,06,43,7.90
2005,09,26,06,44,7.90
2005,09,26,06,45,7.90
2005,09,26,06,46,7.90
2005,09,26,06,47,7.90
2005,09,26,06,48,7.80
2005,09,26,06,49,7.80
2005,09,26,06,50,7.80
2005,09,26,06,51,7.80
2005,09,26,06,52,7.80
2005,09,26,06,53,7.80
2005,09,26,06,54,7.80
2005,09,26,06,55,7.70
2005,09,26,06,56,7.70
2005,09,26,06,57,7.70
2005,09,26,06,58,7.70
2005,09,26,06,59,7.70
2005,09,26,07,00,7.70
2005,09,26,07,01,7.80
2005,09,26,07,02,7.80
2005,09,26,07,03,7.70
2005,09,26,07,04,7.70
2005,09,26,07,05,7.60
2005,09,26,07,06,7.50
2005,09,26,07,07,7.40
2005,09,26,07,08,7.40
2005,09,26,07,09,7.30
2005,09,26,07,10,7.30
2005,09,26,07,11,7.30
2005,09,26,07,12,7.30
2005,09,26,07,13,7.30
2005,09,26,07,14,7.30
2005,09,26,07,15,7.30
2005,09,26,07,16,7.30
2005,09,26,07,17,7.30
2005,09,26,07,18,7.30
2005,09,26,07,19,7.30
2005,09,26,07,20,7.40
2005,09,26,07,21,7.40
2005,09,26,07,22,7.40
2005,09,26,07,23,7.40
2005,09,26,07,24,7.40
2005,09,26,07,25,7.50
2005,09,26,07,26,7.50
2005,09,26,07,27,7.60
2005,09,26,07,28,7.60
2005,09,26,07,29,7.70
2005,09,26,07,30,7.70
2005,09,26,07,31,7.80
2005,09,26,07,32,7.80
2005,09,26,07,33,7.80
2005,09,26,07,34,8.00
2005,09,26,07,35,8.20
2005,09,26,07,36,8.40
2005,09,26,07,37,8.60
2005,09,26,07,38,8.70
2005,09,26,07,39,8.80
2005,09,26,07,40,8.90
2005,09,26,07,41,9.00
2005,09,26,07,42,9.00
2005,09,26,07,43,9.20
2005,09,26,07,44,9.20
2005,09,26,07,45,9.20
2005,09,26,07,46,9.30
2005,09,26,07,47,9.30
2005,09,26,07,48,9.40
2005,09,26,07,49,9.40
2005,09,26,07,50,9.50
2005,09,26,07,51,9.50
2005,09,26,07,52,9.60
2005,09,26,07,53,9.60
2005,09,26,07,54,9.70
2005,09,26,07,55,9.70
2005,09,26,07,56,9.80
2005,09,26,07,57,9.80
2005,09,26,07,58,9.90
2005,09,26,07,59,9.90
2005,09,26,08,00,9.90
2005,09,26,08,01,10.00
2005,09,26,08,02,10.10
2005,09,26,08,03,10.10
2005,09,26,08,04,10.10
2005,09,26,08,05,10.10
2005,09,26,08,06,10.10
2005,09,26,08,07,10.10
2005,09,26,08,08,10.20
2005,09,26,08,09,10.20
2005,09,26,08,10,10.30
2005,09,26,08,11,10.30
2005,09,26,08,12,10.40
2005,09,26,08,13,10.40
2005,09,26,08,14,10.40
2005,09,26,08,15,10.40
2005,09,26,08,16,10.40
2005,09,26,08,17,10.40
2005,09,26,08,18,10.40
2005,09,26,08,19,10.40
2005,09,26,08,20,10.50
2005,09,26,08,21,10.60
2005,09,26,08,22,10.60
2005,09,26,08,23,10.50
2005,09,26,08,24,10.40
2005,09,26,08,25,10.40
2005,09,26,08,26,10.40
2005,09,26,08,27,10.40
2005,09,26,08,28,10.40
2005,09,26,08,29,10.40
2005,09,26,08,30,10.50
2005,09,26,08,31,10.60
2005,09,26,08,32,10.60
2005,09,26,08,33,10.60
2005,09,26,08,34,10.60
2005,09,26,08,35,10.70
2005,09,26,08,36,10.80
2005,09,26,08,37,10.80
2005,09,26,08,38,10.90
2005,09,26,08,39,10.90
2005,09,26,08,40,10.90
2005,09,26,08,41,10.90
2005,09,26,08,42,10.90
2005,09,26,08,43,10.90
2005,09,26,08,44,10.80
2005,09,26,08,45,10.80
2005,09,26,08,46,10.80
2005,09,26,08,47,10.80
2005,09,26,08,48,10.70
2005,09,26,08,49,10.80
2005,09,26,08,50,10.70
2005,09,26,08,51,10.70
2005,09,26,08,52,10.60
2005,09,26,08,53,10.70
2005,09,26,08,54,10.70
2005,09,26,08,55,10.80
2005,09,26,08,56,10.90
2005,09,26,08,57,10.80
2005,09,26,08,58,10.80
2005,09,26,08,59,10.80
2005,09,26,09,00,10.70
2005,09,26,09,01,10.70
2005,09,26,09,02,10.60
2005,09,26,09,03,10.60
2005,09,26,09,04,10.60
2005,09,26,09,05,10.60
2005,09,26,09,06,10.60
2005,09,26,09,07,10.50
2005,09,26,09,08,10.40
2005,09,26,09,09,10.40
2005,09,26,09,10,10.40
2005,09,26,09,11,10.40
2005,09,26,09,12,10.40
2005,09,26,09,13,10.40
2005,09,26,09,14,10.30
2005,09,26,09,15,10.40
2005,09,26,09,16,10.40
2005,09,26,09,17,10.40
2005,09,26,09,18,10.50
2005,09,26,09,19,10.60
2005,09,26,09,20,10.60
2005,09,26,09,21,10.60
2005,09,26,09,22,10.60
2005,09,26,09,23,10.60
2005,09,26,09,24,10.60
2005,09,26,09,25,10.60
2005,09,26,09,26,10.60
2005,09,26,09,27,10.70
2005,09,26,09,28,10.70
2005,09,26,09,29,10.80
2005,09,26,09,30,10.80
2005,09,26,09,31,10.80
2005,09,26,09,32,10.80
2005,09,26,09,33,10.70
2005,09,26,09,34,10.80
2005,09,26,09,35,10.80
2005,09,26,09,36,10.90
2005,09,26,09,37,10.90
2005,09,26,09,38,10.90
2005,09,26,09,39,11.10
2005,09,26,09,40,11.20
2005,09,26,09,41,11.20
2005,09,26,09,42,11.30
2005,09,26,09,43,11.30
2005,09,26,09,44,11.30
2005,09,26,09,45,11.30
2005,09,26,09,46,11.40
2005,09,26,09,47,11.40
2005,09,26,09,48,11.40
2005,09,26,09,49,11.30
2005,09,26,09,50,11.40
2005,09,26,09,51,11.40
2005,09,26,09,52,11.50
2005,09,26,09,53,11.60
2005,09,26,09,54,11.60
2005,09,26,09,55,11.70
2005,09,26,09,56,11.70
2005,09,26,09,57,11.80
2005,09,26,09,58,11.80
2005,09,26,09,59,11.80
2005,09,26,10,00,11.90
2005,09,26,10,01,11.90
2005,09,26,10,02,11.90
2005,09,26,10,03,11.90
2005,09,26,10,04,12.00
2005,09,26,10,05,12.10
2005,09,26,10,06,12.20
2005,09,26,10,07,12.30
2005,09,26,10,08,12.30
2005,09,26,10,09,12.30
2005,09,26,10,10,12.30
2005,09,26,10,11,12.20
2005,09,26,10,12,12.10
2005,09,26,10,13,12.00
2005,09,26,10,14,11.90
2005,09,26,10,15,11.90
2005,09,26,10,16,11.90
2005,09,26,10,17,11.80
2005,09,26,10,18,11.80
2005,09,26,10,19,11.80
2005,09,26,10,20,11.60
2005,09,26,10,21,11.50
2005,09,26,10,22,11.30
2005,09,26,10,23,11.10
2005,09,26,10,24,11.10
2005,09,26,10,25,10.90
2005,09,26,10,26,11.00
2005,09,26,10,27,11.10
2005,09,26,10,28,11.10
2005,09,26,10,29,11.10
2005,09,26,10,30,11.10
2005,09,26,10,31,11.10
2005,09,26,10,32,11.10
2005,09,26,10,33,11.10
2005,09,26,10,34,11.10
2005,09,26,10,35,11.10
2005,09,26,10,36,11.10
2005,09,26,10,37,11.10
2005,09,26,10,38,11.10
2005,09,26,10,39,11.20
2005,09,26,10,40,11.20
2005,09,26,10,41,11.20
2005,09,26,10,42,11.20
2005,09,26,10,43,11.20
2005,09,26,10,44,11.30
2005,09,26,10,45,11.40
2005,09,26,10,46,11.40
2005,09,26,10,47,11.40
2005,09,26,10,48,11.40
2005,09,26,10,49,11.40
2005,09,26,10,50,11.40
2005,09,26,10,51,11.30
2005,09,26,10,52,11.20
2005,09,26,10,53,11.30
2005,09,26,10,54,11.30
2005,09,26,10,55,11.20
2005,09,26,10,56,11.20
2005,09,26,10,57,11.10
2005,09,26,10,58,11.10
2005,09,26,10,59,11.10
2005,09,26,11,00,11.10
2005,09,26,11,01,11.10
2005,09,26,11,02,11.00
2005,09,26,11,03,10.90
2005,09,26,11,04,10.80
2005,09,26,11,05,10.70
2005,09,26,11,06,10.60
2005,09,26,11,07,10.60
2005,09,26,11,08,10.50
2005,09,26,11,09,10.50
2005,09,26,11,10,10.60
2005,09,26,11,11,10.60
2005,09,26,11,12,10.60
2005,09,26,11,13,10.70
2005,09,26,11,14,10.70
2005,09,26,11,15,10.70
2005,09,26,11,16,10.60
2005,09,26,11,17,10.60
2005,09,26,11,18,10.70
2005,09,26,11,19,10.70
2005,09,26,11,20,10.70
2005,09,26,11,21,10.70
2005,09,26,11,22,10.70
2005,09,26,11,23,10.90
2005,09,26,11,24,10.90
2005,09,26,11,25,10.90
2005,09,26,11,26,11.10
2005,09,26,11,27,11.10
2005,09,26,11,28,11.10
2005,09,26,11,29,11.10
2005,09,26,11,30,11.10
2005,09,26,11,31,11.10
2005,09,26,11,32,11.20
2005,09,26,11,33,11.20
2005,09,26,11,34,11.10
2005,09,26,11,35,11.00
2005,09,26,11,36,10.90
2005,09,26,11,37,10.90
2005,09,26,11,38,10.80
2005,09,26,11,39,10.80
2005,09,26,11,40,10.90
2005,09,26,11,41,10.90
2005,09,26,11,42,10.80
2005,09,26,11,43,10.90
2005,09,26,11,44,10.90
2005,09,26,11,45,10.90
2005,09,26,11,46,10.90
2005,09,26,11,47,11.00
2005,09,26,11,48,11.10
2005,09,26,11,49,11.10
2005,09,26,11,50,11.10
2005,09,26,11,51,10.90
2005,09,26,11,52,10.90
2005,09,26,11,53,10.90
2005,09,26,11,54,10.70
2005,09,26,11,55,10.70
2005,09,26,11,56,10.80
2005,09,26,11,57,10.80
2005,09,26,11,58,10.70
2005,09,26,11,59,10.70
2005,09,26,12,00,10.70
2005,09,26,12,01,10.70
2005,09,26,12,02,10.70
2005,09,26,12,03,10.80
2005,09,26,12,04,10.90
2005,09,26,12,05,10.90
2005,09,26,12,06,10.90
2005,09,26,12,07,10.90
2005,09,26,12,08,11.00
2005,09,26,12,09,11.10
2005,09,26,12,10,11.30
2005,09,26,12,11,11.50
2005,09,26,12,12,11.60
2005,09,26,12,13,11.60
2005,09,26,12,14,11.60
2005,09,26,12,15,11.60
2005,09,26,12,16,11.60
2005,09,26,12,17,11.60
2005,09,26,12,18,11.60
2005,09,26,12,19,11.40
2005,09,26,12,20,11.60
2005,09,26,12,21,11.70
2005,09,26,12,22,11.80
2005,09,26,12,23,11.90
2005,09,26,12,24,12.00
2005,09,26,12,25,12.30
2005,09,26,12,26,12.60
2005,09,26,12,27,12.70
2005,09,26,12,28,12.80
2005,09,26,12,29,12.90
2005,09,26,12,30,13.10
2005,09,26,12,31,13.20
2005,09,26,12,32,13.30
2005,09,26,12,33,13.30
2005,09,26,12,34,13.30
2005,09,26,12,35,13.30
2005,09,26,12,36,13.30
2005,09,26,12,37,13.30
2005,09,26,12,38,13.30
2005,09,26,12,39,13.30
2005,09,26,12,40,13.40
2005,09,26,12,41,13.50
2005,09,26,12,42,13.60
2005,09,26,12,43,13.80
2005,09,26,12,44,14.00
2005,09,26,12,45,14.20
2005,09,26,12,46,14.30
2005,09,26,12,47,14.40
2005,09,26,12,48,14.40
2005,09,26,12,49,14.50
2005,09,26,12,50,14.70
2005,09,26,12,51,14.90
2005,09,26,12,52,15.20
2005,09,26,12,53,15.40
2005,09,26,12,54,15.50
2005,09,26,12,55,15.60
2005,09,26,12,56,15.70
2005,09,26,12,57,15.80
2005,09,26,12,58,15.90
2005,09,26,12,59,16.00
2005,09,26,13,00,16.10
2005,09,26,13,01,16.10
2005,09,26,13,02,16.10
2005,09,26,13,03,16.10
2005,09,26,13,04,16.10
2005,09,26,13,05,16.20
2005,09,26,13,06,16.20
2005,09,26,13,07,16.30
2005,09,26,13,08,16.50
2005,09,26,13,09,16.70
2005,09,26,13,10,16.70
2005,09,26,13,11,16.80
2005,09,26,13,12,16.90
2005,09,26,13,13,17.00
2005,09,26,13,14,17.00
2005,09,26,13,15,17.10
2005,09,26,13,16,17.10
2005,09,26,13,17,17.20
2005,09,26,13,18,17.30
2005,09,26,13,19,17.40
2005,09,26,13,20,17.60
2005,09,26,13,21,17.80
2005,09,26,13,22,17.80
2005,09,26,13,23,17.70
2005,09,26,13,24,17.70
2005,09,26,13,25,17.60
2005,09,26,13,26,17.60
2005,09,26,13,27,17.60
2005,09,26,13,28,17.50
2005,09,26,13,29,17.40
2005,09,26,13,30,17.40
2005,09,26,13,31,17.40
2005,09,26,13,32,17.50
2005,09,26,13,33,17.70
2005,09,26,13,34,17.90
2005,09,26,13,35,18.00
2005,09,26,13,36,18.20
2005,09,26,13,37,18.30
2005,09,26,13,38,18.40
2005,09,26,13,39,18.40
2005,09,26,13,40,18.50
2005,09,26,13,41,18.50
2005,09,26,13,42,18.40
2005,09,26,13,43,18.40
2005,09,26,13,44,18.40
2005,09,26,13,45,18.40
2005,09,26,13,46,18.40
2005,09,26,13,47,18.40
2005,09,26,13,48,18.30
2005,09,26,13,49,18.30
2005,09,26,13,50,18.30
2005,09,26,13,51,18.20
2005,09,26,13,52,18.20
2005,09,26,13,53,18.00
2005,09,26,13,54,17.90
2005,09,26,13,55,17.90
2005,09,26,13,56,17.90
2005,09,26,13,57,17.80
2005,09,26,13,58,17.70
2005,09,26,13,59,17.70
2005,09,26,14,00,17.70
2005,09,26,14,01,17.80
2005,09,26,14,02,17.80
2005,09,26,14,03,17.90
2005,09,26,14,04,18.10
2005,09,26,14,05,18.20
2005,09,26,14,06,18.30
2005,09,26,14,07,18.30
2005,09,26,14,08,18.40
2005,09,26,14,09,18.50
2005,09,26,14,10,18.50
2005,09,26,14,11,18.40
2005,09,26,14,12,18.30
2005,09,26,14,13,18.30
2005,09,26,14,14,18.20
2005,09,26,14,15,18.10
2005,09,26,14,16,18.00
2005,09,26,14,17,17.90
2005,09,26,14,18,17.90
2005,09,26,14,19,18.00
2005,09,26,14,20,18.10
2005,09,26,14,21,18.10
2005,09,26,14,22,18.10
2005,09,26,14,23,18.00
2005,09,26,14,24,17.90
2005,09,26,14,25,18.10
2005,09,26,14,26,18.20
2005,09,26,14,27,18.20
2005,09,26,14,28,18.20
2005,09,26,14,29,18.30
2005,09,26,14,30,18.40
2005,09,26,14,31,18.60
2005,09,26,14,32,18.70
2005,09,26,14,33,18.70
2005,09,26,14,34,18.80
2005,09,26,14,35,18.90
2005,09,26,14,36,18.90
2005,09,26,14,37,18.90
2005,09,26,14,38,19.00
2005,09,26,14,39,19.10
2005,09,26,14,40,19.10
2005,09,26,14,41,19.10
2005,09,26,14,42,19.10
2005,09,26,14,43,19.00
2005,09,26,14,44,19.10
2005,09,26,14,45,19.10
2005,09,26,14,46,19.10
2005,09,26,14,47,19.10
2005,09,26,14,48,19.10
2005,09,26,14,49,19.10
2005,09,26,14,50,19.10
2005,09,26,14,51,19.10
2005,09,26,14,52,19.20
2005,09,26,14,53,19.30
2005,09,26,14,54,19.40
2005,09,26,14,55,19.40
2005,09,26,14,56,19.50
2005,09,26,14,57,19.50
2005,09,26,14,58,19.40
2005,09,26,14,59,19.40
2005,09,26,15,00,19.40
2005,09,26,15,01,19.30
2005,09,26,15,02,19.30
2005,09,26,15,03,19.30
2005,09,26,15,04,19.20
2005,09,26,15,05,19.10
2005,09,26,15,06,19.10
2005,09,26,15,07,19.10
2005,09,26,15,08,19.20
2005,09,26,15,09,19.20
2005,09,26,15,10,19.20
2005,09,26,15,11,19.10
2005,09,26,15,12,19.10
2005,09,26,15,13,19.00
2005,09,26,15,14,18.90
2005,09,26,15,15,18.90
2005,09,26,15,16,18.90
2005,09,26,15,17,18.90
2005,09,26,15,18,18.90
2005,09,26,15,19,18.90
2005,09,26,15,20,19.00
2005,09,26,15,21,19.10
2005,09,26,15,22,19.10
2005,09,26,15,23,19.20
2005,09,26,15,24,19.10
2005,09,26,15,25,19.20
2005,09,26,15,26,19.10
2005,09,26,15,27,19.10
2005,09,26,15,28,19.10
2005,09,26,15,29,19.10
2005,09,26,15,30,19.10
2005,09,26,15,31,19.20
2005,09,26,15,32,19.10
2005,09,26,15,33,19.10
2005,09,26,15,34,19.10
2005,09,26,15,35,19.20
2005,09,26,15,36,19.20
2005,09,26,15,37,19.30
2005,09,26,15,38,19.30
2005,09,26,15,39,19.40
2005,09,26,15,40,19.50
2005,09,26,15,41,19.50
2005,09,26,15,42,19.60
2005,09,26,15,43,19.60
2005,09,26,15,44,19.70
2005,09,26,15,45,19.70
2005,09,26,15,46,19.70
2005,09,26,15,47,19.80
2005,09,26,15,48,19.80
2005,09,26,15,49,19.80
2005,09,26,15,50,19.70
2005,09,26,15,51,19.60
2005,09,26,15,52,19.40
2005,09,26,15,53,19.30
2005,09,26,15,54,19.30
2005,09,26,15,55,19.20
2005,09,26,15,56,19.10
2005,09,26,15,57,19.10
2005,09,26,15,58,19.00
2005,09,26,15,59,18.90
2005,09,26,16,00,18.90
2005,09,26,16,01,18.90
2005,09,26,16,02,18.90
2005,09,26,16,03,18.90
2005,09,26,16,04,19.00
2005,09,26,16,05,19.10
2005,09,26,16,06,19.10
2005,09,26,16,07,19.10
2005,09,26,16,08,19.00
2005,09,26,16,09,18.90
2005,09,26,16,10,18.90
2005,09,26,16,11,18.90
2005,09,26,16,12,18.90
2005,09,26,16,13,18.90
2005,09,26,16,14,18.90
2005,09,26,16,15,18.90
2005,09,26,16,16,18.90
2005,09,26,16,17,18.90
2005,09,26,16,18,19.00
2005,09,26,16,19,19.10
2005,09,26,16,20,19.10
2005,09,26,16,21,19.20
2005,09,26,16,22,19.30
2005,09,26,16,23,19.40
2005,09,26,16,24,19.50
2005,09,26,16,25,19.60
2005,09,26,16,26,19.70
2005,09,26,16,27,19.70
2005,09,26,16,28,19.70
2005,09,26,16,29,19.80
2005,09,26,16,30,19.80
2005,09,26,16,31,19.60
2005,09,26,16,32,19.40
2005,09,26,16,33,19.30
2005,09,26,16,34,19.10
2005,09,26,16,35,19.10
2005,09,26,16,36,18.90
2005,09,26,16,37,18.90
2005,09,26,16,38,18.80
2005,09,26,16,39,18.70
2005,09,26,16,40,18.60
2005,09,26,16,41,18.60
2005,09,26,16,42,18.50
2005,09,26,16,43,18.40
2005,09,26,16,44,18.30
2005,09,26,16,45,18.30
2005,09,26,16,46,18.30
2005,09,26,16,47,18.30
2005,09,26,16,48,18.40
2005,09,26,16,49,18.40
2005,09,26,16,50,18.50
2005,09,26,16,51,18.50
2005,09,26,16,52,18.50
2005,09,26,16,53,18.50
2005,09,26,16,54,18.50
2005,09,26,16,55,18.40
2005,09,26,16,56,18.40
2005,09,26,16,57,18.30
2005,09,26,16,58,18.40
2005,09,26,16,59,18.40
2005,09,26,17,00,18.40
2005,09,26,17,01,18.40
2005,09,26,17,02,18.40
2005,09,26,17,03,18.30
2005,09,26,17,04,18.20
2005,09,26,17,05,18.20
2005,09,26,17,06,18.20
2005,09,26,17,07,18.10
2005,09,26,17,08,18.00
2005,09,26,17,09,17.90
2005,09,26,17,10,17.70
2005,09,26,17,11,17.60
2005,09,26,17,12,17.50
2005,09,26,17,13,17.50
2005,09,26,17,14,17.50
2005,09,26,17,15,17.50
2005,09,26,17,16,17.50
2005,09,26,17,17,17.50
2005,09,26,17,18,17.60
2005,09,26,17,19,17.60
2005,09,26,17,20,17.60
2005,09,26,17,21,17.60
2005,09,26,17,22,17.60
2005,09,26,17,23,17.50
2005,09,26,17,24,17.40
2005,09,26,17,25,17.40
2005,09,26,17,26,17.40
2005,09,26,17,27,17.40
2005,09,26,17,28,17.40
2005,09,26,17,29,17.40
2005,09,26,17,30,17.40
2005,09,26,17,31,17.40
2005,09,26,17,32,17.40
2005,09,26,17,33,17.30
2005,09,26,17,34,17.30
2005,09,26,17,35,17.30
2005,09,26,17,36,17.20
2005,09,26,17,37,17.20
2005,09,26,17,38,17.10
2005,09,26,17,39,17.00